Weather in La Grande-Motte

France     43°33′41″N   4°05′14″E
temp.,
°C
wind,
m/s
gust,
m/s
humid.,
%
clouds,
%
prec.,
mm/h
press.,
hPa
HPBL,
m
13 april, tue
tue1323:00+11nnw1114460 0.0 10251223
02:00+9nnw812480 0.0 1025937
05:00+9nw69460 0.0 1024580
08:00+8nw611495 0.0 1024655
11:00+12nnw811395 0.0 10251274
14:00+14n68416 0.0 1023352
17:00+15nne254598 0.0 1021251
20:00+13ne7114895 0.0 1021483
14 april, wed
wed1423:00+11n7125230 0.0 1023577
02:00+10n6125249 0.0 1023565
05:00+9nne61257100 0.0 1022463
08:00+8nne71258100 0.0 1023497
11:00+10nne89505 0.0 1023680
14:00+13ne464595 0.0 10221157
17:00+14se45501 0.0 1020307
20:00+13e36561 0.0 1020217
15 april, thu
thu1523:00+11nne613494 0.0 1021650
02:00+10n611515 0.0 1021539
05:00+9n610504 0.0 1020399
08:00+8nne58554 0.0 1021307
11:00+11nne810440 0.0 1021925
14:00+14ne67420 0.0 1019750
17:00+15ene67430 0.0 1017360
20:00+13sse44594 0.0 1017168
16 april, fri
fri1623:00+12wsw225910 0.0 1019208
02:00+11ne455914 0.0 1018534
05:00+9nne56605 0.0 1017255
08:00+8nne46577 0.0 1017289
11:00+11nne564896 0.0 1017734
14:00+13ene13386 0.0 1015602
17:00+13sw5250100 0.0 1014391
20:00+13nw5758100 0.0 1014389
17 april, sat
sat1723:00+12n696151 0.1 1016554
02:00+10nne5765100 0.1 1016375
05:00+9n6765100 0.0 1015342
08:00+9n456579 0.0 1016290
11:00+11n56495 0.0 1016883
14:00+13s23465 0.0 1014379
17:00+15ese243870 0.0 1013609
20:00+14ene455493 0.0 1014191